Regional Weather Roundup
Issued by NWS

Home | Current Version | Previous Version | Text Only | Print | Product List | Glossary On
Versions: 1 2 3 4 5 6 7 8 9 10 11 12 13 14 15 16 17 18 19 20 21 22 23 24 25 26 27 28 29 30 31 32 33 34 35 36 37 38 39 40 41 42 43 44 45 46 47 48 49 50
000
ASUS43 KMPX 070001
RWRMN
WEATHER ROUNDUP FOR MINNESOTA
NATIONAL WEATHER SERVICE TWIN CITIES/CHANHASSEN MN
700 PM CDT FRI MAY 06 2016


NOTE: "FAIR" INDICATES FEW OR NO CLOUDS BELOW 12,000 FEET WITH NO
SIGNIFICANT WEATHER AND/OR OBSTRUCTIONS TO VISIBILITY. N/A MEANS
CURRENT SKY AND/OR WEATHER CONDITIONS ARE NOT AVAILABLE.

MNZ060>063-068>070-070100-
   Twin Cities Metro

CITY           SKY/WX    TMP DP  RH WIND       PRES   REMARKS
TWIN CITIES    PTSUNNY   86  52  30 NW16G23   29.64R
6HR MIN TEMP:  85; 6HR MAX TEMP:  92;

ST PAUL        SUNNY     85  53  33 NW14      29.63R
CRYSTAL        SUNNY     87  51  28 W8        29.64R
BLAINE         PTSUNNY   88  52  29 W14       29.64R
EDEN PRAIRIE   CLOUDY    87  51  28 NW12      29.64R
6HR MIN TEMP:  87; 6HR MAX TEMP:  92;

SOUTH ST PAUL  SUNNY     87  49  27 W10G17    29.63S
LAKE ELMO      FAIR      86  54  32 W16       29.64S
$$
MNZ001>005-007-008-013>017-022>024-027-028-070100-
   Northwest Minnesota

CITY           SKY/WX    TMP DP  RH WIND       PRES   REMARKS
BEMIDJI        MOSUNNY   60  41  49 N15G32    29.86R
HALLOCK        SUNNY     64  25  22 NE14      29.94S
ROSEAU         PTSUNNY   61  27  27 N20G26    29.92S
WARROAD        PTSUNNY   61  34  36 NW13G22   29.92R
THIEF RVR FALL CLOUDY    61  28  29 N20       29.94R
CROOKSTON      CLOUDY    63  28  27 N21G29    29.95R
FOSSTON        CLOUDY    61  27  27 N25       29.91R
DETROIT LAKES  MOSUNNY   64  36  34 N22G38    29.88R
MOORHEAD       MOSUNNY   64  27  24 N29G40    29.91R
PARK RAPIDS    SUNNY     72  42  34 N17G30    29.80R
MAHNOMEN       FAIR      62  33  34 N28G36    29.89R
$$
MNZ006-009>011-018-025>026-070100-
   North Central Minnesota

CITY           SKY/WX    TMP DP  RH WIND       PRES   REMARKS
BAUDETTE       CLOUDY    59  28  30 NW16G23   29.88R
FLAG ISLAND    MOSUNNY   59  30  33 NW18G24   29.88S
INTL FALLS     HAZE      59  30  33 NW16G23   29.82S VSB 1
6HR MIN TEMP:  57; 6HR MAX TEMP:  85; 6HR PCP: TRACE;

WASKISH        CLOUDY    61  30  31 NW16G24   29.87R
BIG FORK       MOSUNNY   64  43  45 N14G21    29.80R
LONGVILLE      SUNNY     72  45  37 NW8G22    29.77R
GRAND RAPIDS   SUNNY     72  43  35 N23G30    29.77R
CRANE LAKE     PTSUNNY   61  43  51 NW15G22   29.81R HAZE
ORR            PTSUNNY   61  37  41 NW13G18   29.76R HAZE
COOK           SUNNY     66  43  42 NW16G28   29.78R
WALKER         FAIR      69  43  39 N15G26    29.79R
$$
MNZ012-019>021-037-070100-
   Northeast Minnesota

CITY           SKY/WX    TMP DP  RH WIND       PRES   REMARKS
DULUTH         PTSUNNY   75  49  39 NW17G24   29.68R
6HR MIN TEMP:  67; 6HR MAX TEMP:  92; 6HR PCP:  0.44;

ELY            SUNNY     70  45  40 NW15G23   29.71R HAZE
HIBBING        CLOUDY    70  46  42 NW24G30   29.73R
EVELETH        CLOUDY    72  39  30 NW15G28   29.73R
DULUTH HARBOR  CLOUDY    75  57  53 W17       29.64R
TWO HARBORS      N/A     81  54  39 NW12G24   29.63R HAZE
SILVER BAY     MOSUNNY   79  45  29 NW10G26   29.61R
GRAND MARAIS     N/A     78  47  33 NW12G32   29.56R
G MARAIS ARPRT CLOUDY    73  43  33 NW16G26   29.65R
$$
MNZ029>031-032-039>041-046>048-054>057-064-070100-
   West Central Minnesota

CITY           SKY/WX    TMP DP  RH WIND       PRES   REMARKS
FERGUS FALLS   SUNNY     73  45  35 N15G22    29.79R
WHEATON        MOSUNNY   75  46  35 N25G31    29.84R
MORRIS         PTSUNNY   79  46  31 N23G33    29.77S
ALEXANDRIA     SUNNY     75  46  35 N21G28    29.78R
ELBOW LAKE     FAIR      74  46  37 NW22G28   29.81R
WADENA         SUNNY     75  46  35 N17       29.78R
GLENWOOD       PTSUNNY   77  46  33 NW20G28   29.77R
APPLETON       CLOUDY    79  41  25 N22G32    29.76S
BENSON         MOSUNNY   81  41  24 NE20G30   29.75R
ORTONVILLE     PTSUNNY   75  43  31 N28G38    29.79S
MADISON        CLOUDY    77  39  25 N23G37    29.77S
WILLMAR        FAIR      84  52  32 N16       29.73R
$$
MNZ033>034-036-042>043-049>051-058-059-070100-
   Central Minnesota

CITY           SKY/WX    TMP DP  RH WIND       PRES   REMARKS
ST CLOUD       SUNNY     85  50  29 NW21G28   29.67R
6HR MIN TEMP:  85; 6HR MAX TEMP:  89;

SAUK CENTRE      N/A     79  49  35 NW21G28   29.74R
PAYNESVILLE    CLOUDY    84  46  25 NW16      29.72R
AITKIN         CLOUDY    75  43  31 NW8G17    29.72R
PINE RIVER     SUNNY     73  48  40 N13G21    29.80R
BRAINERD       SUNNY     74  45  35 N22G28    29.75R HAZE
STAPLES        SUNNY     75  43  31 N16G24    29.76R
LONG PRAIRIE   FAIR      79  46  31 NW20G28   29.75R
LITTLE FALLS   SUNNY     81  43  26 NW13G22   29.72R
LITCHFIELD     CLOUDY    84  54  34 W5        29.68F
BUFFALO        CLOUDY    85  47  26 NW10      29.68R
MAPLE LAKE     CLOUDY    84  54  35 NW6       29.68S
HUTCHINSON     SUNNY     86  52  31 NW7       29.70S
$$
MNZ037-044-045-052-053-070100-
   East Central Minnesota

CITY           SKY/WX    TMP DP  RH WIND       PRES   REMARKS
PRINCETON      SUNNY     88  52  29 W7        29.66S
MORA             N/A     68  57  68 W8        29.70R
CAMBRIDGE        N/A     88  63  42 W8        29.64S
RUSH CITY      SUNNY     83  52  33 NW6       29.66R THUNDER
MOOSE LAKE     CLOUDY    73  54  49 NW5       29.67S
HINCKLEY       LGT RAIN  77  55  47 NW6       29.65S
CLOQUET        CLOUDY    75  46  35 NW15G24   29.69R
MCGREGOR       CLOUDY    77  50  38 N14G24    29.72R
$$
MNZ071>073-080-081-089-090-097-098-070100-
   Southwest Minnesota

CITY           SKY/WX    TMP DP  RH WIND       PRES   REMARKS
MONTEVIDEO     CLOUDY    81  46  30 N18G28    29.76R
GRANITE FALLS  CLOUDY    85  49  28 NW18G25   29.74R
CANBY          CLOUDY    78  46  32 NW16G26   29.80R
MARSHALL       CLOUDY    83  49  30 N21G26    29.74R
REDWOOD FALLS  PTSUNNY   86  44  23 NW13G20   29.69F
OLIVIA         CLOUDY    79  43  27 NW17G26   29.69S
PIPESTONE      MOSUNNY   86  36  16 NW10      29.78F
WINDOM         SUNNY     88  45  22 W14G21    29.74F
WORTHINGTON    SUNNY     85  50  29 SW20      29.78S
JACKSON        SUNNY     86  36  16 W18       29.76F
TRACY          MOSUNNY   86  46  24 NW7       29.74S
SLAYTON        MOSUNNY   87  44  22 W15       29.78S
$$
MNZ065>067-074>077-082>085-091>093-070100-
   South Central Minnesota

CITY           SKY/WX    TMP DP  RH WIND       PRES   REMARKS
MANKATO        MOSUNNY   88  48  25 W10       29.69S
NEW ULM        MOSUNNY   84  45  24 NW9       29.69S
ST JAMES       MOSUNNY   82  45  26 SW22      29.71F
FAIRMONT       SUNNY     88  37  16 W16       29.73F
GLENCOE        CLOUDY    86  54  33 W10       29.68S
FARIBAULT      SUNNY     84  48  28 W9        29.68F
OWATONNA       MOSUNNY   88  41  19 W20       29.70S
WASECA         PTSUNNY   84  45  24 SW16G29   29.71F
ALBERT LEA     MOSUNNY   86  41  20 W14G22    29.73F
$$
MNZ078>079-086>088-094>096-070100-
   Southeast Minnesota

CITY           SKY/WX    TMP DP  RH WIND       PRES   REMARKS
ROCHESTER      MOSUNNY   85  45  24 SW22G31   29.72F
6HR MIN TEMP:  84; 6HR MAX TEMP:  90;

RED WING       MOSUNNY   90  43  19 SW16G24   29.62F
STANTON        MOSUNNY   88  46  23 SW18G25   29.63F
DODGE CENTER   SUNNY     82  41  23 W20G31    29.71F
WINONA         SUNNY     90  41  18 W8G17     29.68F
AUSTIN         MOSUNNY   84  43  23 SW13G22   29.73F
PRESTON        SUNNY     83  40  21 W13       29.75S
$$
ABBREVIATIONS USED IN REMARKS
   TC - TEMPERATURES IN CELSIUS
  WCI - WIND CHILL INDEX
   HX - HEAT INDEX
  VSB - VISIBILITY
$$




USA.gov is the U.S. government's official web portal to all federal, state and local government web resources and services.